Tracking 27126 objects as of 30-Mar-2023
HD Live streaming from Space Station
objects crossing your sky now

STARLINK-3370

Track STARLINK-3370 now!
10-day predictions
STARLINK-3370 is classified as:


NORAD ID: 51127
Int'l Code: 2022-005Z
Perigee: 545.7 km
Apogee: 548.1 km
Inclination: 53.2 °
Period: 95.4 minutes
Semi major axis: 6917 km
RCS: Unknown
Launch date: January 19, 2022
Source: United States (US)
Launch site: AIR FORCE EASTERN TEST RANGE (AFETR)
Your satellite tracking list
Your tracking list is empty




NASA's NSSDC Master Catalog

Two Line Element Set (TLE):
1 51127U 22005Z   23089.14800034  .00000486  00000-0  48662-4 0  9995
2 51127  53.2145  87.4213 0001709 106.8854 253.2325 15.08840764 67482
Source of the keplerian elements: AFSPC